Simultaneous Nadir Overpasses (SNOs) Predictions

Prediction of SNOs between METOP-B and TERRA Satellite Orbit:

Table of predicted SNOs for the next 14.0 days since TLE Epoch: 5/8/2021
Index Date (METOP-B) Time (METOP-B) Lat,Lon (METOP-B) SZA (METOP-B ) Date (TERRA) Time (TERRA) Lat,Lon (TERRA) SZA (TERRA ) Distance(km) Time Diff (sec)
1 05/08/2021 08:04:18 81.26, 104.03 66.83 05/08/2021 08:05:29 81.25, 104.01 66.86 0.40 71
2 05/08/2021 08:54:57 -81.27, -88.03 113.11 05/08/2021 08:54:55 -81.27, -88.10 113.12 1.23 2
3 05/11/2021 03:38:42 81.26, 170.81 66.15 05/11/2021 03:39:41 81.26, 170.61 66.15 3.26 59
4 05/11/2021 04:29:23 -81.26, -21.98 113.88 05/11/2021 04:29:08 -81.26, -21.84 113.87 2.42 15
5 05/13/2021 23:13:08 81.25,-123.21 65.40 05/13/2021 23:13:54 81.25,-123.19 65.42 0.70 46
6 05/14/2021 00:03:47 -81.27, 44.82 114.52 05/14/2021 00:03:20 -81.27, 44.76 114.54 1.13 27
7 05/16/2021 18:47:32 81.25, -56.85 64.74 05/16/2021 18:48:05 81.25, -56.66 64.78 3.26 33
8 05/16/2021 19:38:11 -81.27, 111.23 115.18 05/16/2021 19:37:31 -81.27, 111.32 115.18 1.68 40
9 05/19/2021 14:21:56 81.26, 9.88 64.17 05/19/2021 14:22:17 81.26, 9.84 64.17 0.74 21



Historial Predications of SNOs between METOP-B and TERRA
